Weather History for KCGI - July, 2013

Change the Weather History Date:

Monday, July 22, 2013

  Actual Average Record
Temperature  
Mean Temperature 81 °F 79 °F  
Max Temperature 89 °F 89 °F 102 °F (1983)
Min Temperature 72 °F 68 °F 53 °F (1970)
Degree Days  
Heating Degree Days 0 0  
Month to date heating degree days 0 0  
Since 1 June heating degree days 0 4  
Since 1 July heating degree days 0 0  
Cooling Degree Days 16 14  
Month to date cooling degree days 273 305  
Year to date cooling degree days 777 769  
Since 1 June cooling degree days 606 617  
Growing Degree Days 31 (Base 50)    
Moisture  
Dew Point 71 °F    
Average Humidity 76    
Maximum Humidity 93    
Minimum Humidity 59    
Precipitation  
Precipitation 0.00 in 0.11 in 2.25 in (1969)
Month to date precipitation 0.23 2.39  
Year to date precipitation 24.16 27.06  
Sea Level Pressure  
Sea Level Pressure 29.86 in    
Wind  
Wind Speed 5 mph (WSW)    
Max Wind Speed 12 mph    
Max Gust Speed 17 mph    
Visibility 10 miles    
Events Rain    
T = Trace of Precipitation, MM = Missing Value Source: NWS Daily Summary

Daily Weather History Graph

Daily Weather History Graph

Search for Another Location

Airport or City:

Trip Planner

Search our weather history database for the weather conditions in past years. The results will help you decide how hot, cold, wet, or windy it might be!

Date:

Astronomy

Jul. 22, 2013 Rise Set
Actual Time 5:55 AM CDT 8:13 PM CDT
Civil Twilight 5:25 AM CDT 8:43 PM CDT
Nautical Twilight 4:49 AM CDT 9:19 PM CDT
Astronomical Twilight 4:09 AM CDT 9:59 PM CDT
Moon 8:02 PM CDT (7/22) 5:50 AM CDT (7/22)
Length of Visible Light 15h 17m
Length of Day
14h 18m
Full, 100% of the Moon is Illuminated
Jul 22
Full
Jul 22
Full
Jul 29
Last Quarter
Aug 6
New
Aug 14
First Quarter

Hourly Weather History & Observations

Time (CDT) Temp. Heat Index Dew Point Humidity Pressure Visibility Wind Dir Wind Speed Gust Speed Precip Events Conditions
12:03 AM 73.4 °F - 69.8 °F 88% 29.91 in 5.0 mi SSW 9.2 mph - 0.01 in Rain Rain
12:53 AM 73.0 °F - 69.1 °F 87% 29.86 in 10.0 mi South 8.1 mph - 0.03 in   Mostly Cloudy
1:53 AM 73.0 °F - 70.0 °F 90% 29.84 in 10.0 mi Calm Calm - N/A   Overcast
2:31 AM 73.4 °F - 69.8 °F 88% 29.85 in 10.0 mi Calm Calm - N/A   Mostly Cloudy
2:53 AM 73.0 °F - 70.0 °F 90% 29.84 in 10.0 mi Calm Calm - N/A   Overcast
3:23 AM 73.4 °F - 69.8 °F 88% 29.85 in 10.0 mi Calm Calm - N/A   Overcast
3:53 AM 73.0 °F - 70.0 °F 90% 29.83 in 9.0 mi WNW 3.5 mph - N/A   Scattered Clouds
4:27 AM 73.4 °F - 69.8 °F 88% 29.83 in 8.0 mi West 3.5 mph - N/A   Overcast
4:53 AM 73.0 °F - 70.0 °F 90% 29.82 in 9.0 mi West 3.5 mph - N/A   Overcast
5:53 AM 73.0 °F - 70.0 °F 90% 29.84 in 9.0 mi Calm Calm - N/A   Overcast
6:53 AM 73.0 °F - 70.0 °F 90% 29.85 in 8.0 mi WSW 4.6 mph - N/A   Overcast
7:53 AM 73.0 °F - 71.1 °F 93% 29.86 in 8.0 mi West 4.6 mph - N/A   Overcast
8:53 AM 73.9 °F - 71.1 °F 91% 29.88 in 10.0 mi WNW 4.6 mph - N/A   Overcast
9:42 AM 75.2 °F - 69.8 °F 83% 29.90 in 10.0 mi WSW 4.6 mph - N/A   Overcast
9:53 AM 75.9 °F - 70.0 °F 82% 29.88 in 10.0 mi Variable 3.5 mph - N/A   Mostly Cloudy
10:25 AM 78.8 °F - 71.6 °F 78% 29.89 in 10.0 mi Calm Calm - N/A   Scattered Clouds
10:34 AM 78.8 °F - 69.8 °F 74% 29.89 in 10.0 mi WNW 3.5 mph - N/A   Mostly Cloudy
10:42 AM 78.8 °F - 71.6 °F 78% 29.89 in 10.0 mi WSW 3.5 mph - N/A   Scattered Clouds
10:51 AM 78.8 °F - 69.8 °F 74% 29.89 in 10.0 mi Variable 3.5 mph - N/A   Mostly Cloudy
10:53 AM 79.0 °F - 70.0 °F 74% 29.88 in 10.0 mi Calm Calm - N/A   Scattered Clouds
11:53 AM 82.0 °F 86.3 °F 71.1 °F 69% 29.88 in 10.0 mi Calm Calm - N/A   Partly Cloudy
12:12 PM 82.4 °F 87.2 °F 71.6 °F 70% 29.89 in 10.0 mi WSW 5.8 mph - N/A   Mostly Cloudy
12:53 PM 82.9 °F 88.0 °F 72.0 °F 69% 29.87 in 10.0 mi WNW 3.5 mph - N/A   Mostly Cloudy
1:16 PM 84.2 °F 90.9 °F 73.4 °F 70% 29.88 in 10.0 mi Variable 5.8 mph - N/A   Partly Cloudy
1:53 PM 86.0 °F 92.2 °F 72.0 °F 63% 29.86 in 10.0 mi SW 4.6 mph - N/A   Scattered Clouds
2:53 PM 88.0 °F 95.6 °F 73.0 °F 61% 29.85 in 10.0 mi Variable 4.6 mph - N/A   Partly Cloudy
4:53 PM 89.1 °F 98.0 °F 73.9 °F 61% 29.83 in 10.0 mi SW 8.1 mph - N/A   Clear
5:53 PM 88.0 °F 95.6 °F 73.0 °F 61% 29.79 in 10.0 mi SSW 8.1 mph - N/A   Clear
6:53 PM 86.0 °F 95.1 °F 75.0 °F 70% 29.79 in 10.0 mi SSW 8.1 mph - N/A   Clear
7:53 PM 82.9 °F 90.2 °F 75.0 °F 77% 29.81 in 10.0 mi SSW 8.1 mph - N/A   Clear
8:53 PM 81.0 °F 85.8 °F 73.0 °F 77% 29.81 in 10.0 mi South 6.9 mph - N/A   Clear
9:53 PM 80.1 °F 84.2 °F 73.0 °F 79% 29.83 in 10.0 mi SW 6.9 mph - N/A   Clear
10:53 PM 80.1 °F 83.8 °F 72.0 °F 76% 29.85 in 10.0 mi WSW 10.4 mph - N/A   Mostly Cloudy
11:53 PM 80.1 °F 83.8 °F 72.0 °F 76% 29.86 in 10.0 mi WSW 4.6 mph - N/A   Mostly Cloudy